Regional Weather Roundup
Issued by NWS Cleveland, OH

Home | Current Version | Previous Version | Graphics & Text | Print | Product List | Glossary Off
Versions: 1 2 3 4 5 6 7 8 9 10 11 12 13 14 15 16 17 18 19 20 21 22 23 24 25 26 27 28 29 30 31 32 33 34 35 36 37 38 39 40 41 42 43 44 45 46 47 48 49 50

000
ASUS41 KCLE 240712
RWRCLE
OHIO REGIONAL WEATHER ROUNDUP
NATIONAL WEATHER SERVICE WILMINGTON, OH
300 AM EDT SAT JUN 24 2017

NOTE: "FAIR" INDICATES FEW OR NO CLOUDS BELOW 12,000 FEET WITH NO
SIGNIFICANT WEATHER AND/OR OBSTRUCTIONS TO VISIBILITY.

OHZ001>008-015>018-024>027-034-035-043-044-240800-
   NORTHWEST OHIO

CITY           SKY/WX    TMP DP  RH WIND       PRES   REMARKS
DEFIANCE       FAIR      58  54  86 SW3       29.79F
FINDLAY        FAIR      61  54  77 W8        29.79S
TOLEDO EXPRESS FAIR      61  55  81 SW6       29.78S
TOLEDO EXEC    FAIR      63  56  78 W7        29.78S
LIMA           NOT AVBL
$$

OHZ009>014-019>023-028>033-038-089-240800-
   NORTHEAST OHIO

CITY           SKY/WX    TMP DP  RH WIND       PRES   REMARKS
CLE-HOPKINS    FAIR      69  63  81 W9        29.76S
CLE-LAKEFRONT  FAIR      70  64  81 W13       29.73R
CUY CO. ARPT   NOT AVBL
LORAIN-ELYRIA  FAIR      65  58  78 W9        29.77S
ASHTABULA      FAIR      67  66  97 W7        29.73R
AKRON-CANTON   MOCLDY    67  63  87 W9        29.76S
WOOSTER        FAIR      65  61  87 NW8       29.78S
MANSFIELD      FAIR      63  60  90 W7        29.80S
YOUNGSTOWN     MOCLDY    67  65  93 W7        29.73S
$$

OHZ042-051>053-060>062-070>072-077>081-240800-
  SOUTHWEST OHIO

CITY           SKY/WX    TMP DP  RH WIND       PRES   REMARKS
CINC-COVINGTON FAIR      65  65 100 SW3       29.88R
CINC-LUNKEN    FOG       62  62 100 CALM      29.88R VSB 3/4
HAMILTON       FOG       62  62 100 CALM      29.88R VSB 1/4
DAYTON         FAIR      61  59  93 W8        29.86S
WRIGHT-PAT AFB FAIR      61  61 100 SW5       29.85S
DAYTON GENERAL FAIR      62  60  93 SW3       29.86S FOG
WILMINGTON     FAIR      64  64 100 W8        29.86S FOG
$$

OHZ036-037-039>041-045>050-054>059-063>069-073>076-082>088-240800-
  CENTRAL AND SOUTHEAST OHIO

CITY           SKY/WX    TMP DP  RH WIND       PRES   REMARKS
COLUMBUS       FAIR      66  65  96 W9        29.81S
OSU AIRPORT    FAIR      63  63 100 W7        29.82S
BOLTON FIELD   NOT AVBL
RICKENBACK AFB FAIR      62  62 100 SW6       29.82S
NEWARK         FAIR      64  62  93 W3        29.81R
MARION         FAIR      63  58  83 W6        29.81R
LANCASTER      FAIR      64  63  96 SW6       29.83R
ZANESVILLE     CLOUDY    67  65  93 W7        29.80S
NEW PHILLY     CLOUDY    69  66  90 NW7       29.77S
$$




USA.gov is the U.S. government's official web portal to all federal, state and local government web resources and services.